Find Starlink 32802

NORAD ID: 62738 Int'l Des: 2025-014 Owner: SPXS Country: US Constellation: starlink operational
LEOCIRCULAR

Live Position

Loading 3D Globe...

About Starlink 32802

Description loading...

Upcoming Passes

Passes for default location (London). Set your location on the main map for personalized predictions.

Altitude History

Loading altitude history...

Two-Line Element Set

1 62738U 25014D 26122.32127697 .00000465 00000-0 26463-4 0 9998
2 62738 42.9987 211.1589 0003050 292.8790 67.1739 15.27578270 71464
Epoch: May 2, 2026 • Age: 13 hours

Current Status

Altitude 483.5 km
Velocity 7.63 km/s
Sub-Earth Point 9.77°N, 158.13°W
Launch Date Jan 21, 2025
Age 1.2 years
Type internet

Technical Details

Classification Payload
Mass 730.00 kg
Dry Mass 700.00 kg
Total Mass 730.00 kg
Length 0.30 m
Diameter 4.10 m
Span 29.00 m
Shape Box + pan
Manufacturer SPXS
Bus Type Starlink V2M
Phase Status In Orbit
Owner/State SPXS/US

Most Searched